パンスターズ彗星

C/2014 OE4 ( PanSTARRS )

English version
Home page
Updated on February 8, 2021

---------------------------------------------------------------------

・ プロフィール

発見日 2014年7月26日
発見光度 20.7等
発見者 Pan-STARRS 1 telescope (Haleakala)

・ 写真集

・ 軌道要素

Epoch 2016 Nov. 28.0 TT = JDT 2457720.5
T 2016 Dec. 10.74885 TT                                 Rudenko
q   6.2443114            (2000.0)            P               Q
z  +0.0000856      Peri.   65.74333     -0.08368260     +0.50406403
 +/-0.0000002      Node   240.40004     -0.74841556     +0.53775460
e   0.9994652      Incl.   81.34887     +0.65792962     +0.67582501
From 1759 observations 2014 May 8-2020 Jan. 21, mean residual 0".5.

・ 光度変化

        m1 = -4.0 + 5 logΔ + 20 log r(t - 250)  [   ,250]  (              〜2017年 8月17日)
        m1 =  0.0 + 5 logΔ + 15 log r(t - 250)  [250,   ]  (2017年 8月17日〜              )

---------------------------------------------------------------------

軌道要素はM.P.E.C. 2020-G65に掲載されたものです。
光度グラフはComet for Windowsで作成したものです。

---------------------------------------------------------------------

Copyright(C) Seiichi Yoshida (comet@aerith.net). All rights reserved.